Tracking 22459 objects as of 3-Mar-2021
HD Live streaming from Space Station
objects crossing your sky now

COSMOS 1375 DEB

Track COSMOS 1375 DEB now!
10-day predictions


NORAD ID: 16376
Int'l Code: 1982-055Q
Perigee: 903.4 km
Apogee: 947.3 km
Inclination: 65.8 °
Period: 103.4 minutes
Semi major axis: 7296 km
RCS: 0.0298 m2 (small)
Launch date: June 6, 1982
Source: Commonwealth of Independent States (former USSR) (CIS)
Launch site: PLESETSK MISSILE AND SPACE COMPLEX (PKMTR)

Note: This is SATELLITE DEBRIS
aabbcc
Your satellite tracking list
Your tracking list is empty




NASA's NSSDC Master Catalog

Two Line Element Set (TLE):
1 16376U 82055Q   21061.62998797  .00000172  00000-0  19637-3 0  9999
2 16376  65.8275 200.0594 0030102 303.5521  69.4832 13.92985548790577
Source of the keplerian elements: AFSPC